Tracking 28081 objects as of 27-Sep-2023
HD Live streaming from Space Station
objects crossing your sky now

STARLINK-2463

Track STARLINK-2463 now!
10-day predictions
STARLINK-2463 is classified as:


NORAD ID: 48122
Int'l Code: 2021-027AG
Perigee: 553.4 km
Apogee: 555.4 km
Inclination: 53.1 °
Period: 95.6 minutes
Semi major axis: 6925 km
RCS: Unknown
Launch date: April 7, 2021
Source: United States (US)
Launch site: AIR FORCE EASTERN TEST RANGE (AFETR)
Your satellite tracking list
Your tracking list is empty




NASA's NSSDC Master Catalog

Two Line Element Set (TLE):
1 48122U 21027AG  23270.08601837  .00002276  00000-0  17170-3 0  9992
2 48122  53.0526 212.6214 0001426  93.5483 266.5669 15.06393298137392
Source of the keplerian elements: AFSPC